User: anonymous   Login
Location: Fort Wayne
(41.1310°N, 85.1290°W)
Time: 20:48:41
(UTC-04:00)
Language:

Iridium 37 - Orbit

View from above orbital plane
View from above orbital plane
View from above satellite
View from above satellite

Ground track
Ground track

The orbit data is extracted from the following two-line orbital elements,

1 24968U 97056D   17295.43719691  .00000083  00000-0  22738-4 0  9997
2 24968  86.3935 265.6586 0002262  85.8879 274.2575 14.34210977 50779
Epoch (UTC): 22 October 2017 10:29:33
Eccentricity: 0.0002262
inclination: 86.3935°
perigee height: 776 km
apogee height: 779 km
right ascension of ascending node: 265.6586°
argument of perigee: 85.8879°
revolutions per day: 14.34210977
mean anomaly at epoch: 274.2575°
orbit number at epoch: 5077

The dashed part of the orbit path shows where the satellite is in the earth's shadow,  

DLR